Temp
-13 -13 -13 -13 -13 -13 -13 -12 -12 -13 -13 -12 -12 -12 -13 -13 -13 -13 -12 -12 -12 -11 -11 -11 -11 -11 -11 -11 -11 -11 -12 -11 -12 -12 -12 -12 -12 -12 -12 -12 -12 -13 -13
-13 -13 -13 -13 -13 -13 -13 -13 -13 -13 -12 -12 -12 -12 -12 -12 -12 -12 -12 -12 -12 -12 -12 -12 -11 -12 -12 -12 -12 -12 -12 -12 -12 -12 -12 -12 -12 -12 -12 -12 -12 -12 -13
-13 -13 -13 -13 -13 -13 -13 -13 -13 -12 -12 -12 -12 -12 -12 -12 -12 -12 -12 -12 -12 -12 -12 -12 -12 -12 -12 -12 -12 -12 -12 -12 -12 -12 -12 -12 -12 -12 -12 -12 -13 -13 -13
-13 -13 -13 -13 -13 -13 -13 -13 -13 -13 -13 -13 -12 -12 -12 -12 -12 -12 -12 -12 -12 -12 -12 -12 -12 -12 -12 -13 -13 -13 -13 -13 -13 -13 -12 -13 -13 -13 -13 -12 -13 -13 -13
-13 -13 -13 -13 -13 -13 -13 -13 -13 -13 -13 -13 -12 -12 -12 -12 -12 -12 -12 -12 -12 -12 -12 -12 -12 -12 -12 -13 -13 -13 -13 -13 -13 -13 -13 -13 -13 -13 -13 -13 -13 -13 -13
-13 -13 -13 -13 -13 -13 -13 -13 -13 -13 -13 -13 -13 -13 -13 -13 -12 -12 -12 -13 -13 -13 -13 -13 -13 -13 -13 -13 -13 -13 -13 -13 -12 -12 -13 -13 -13 -13 -13 -13 -13 -13 -14
-13 -13 -13 -13 -13 -13 -13 -13 -13 -13 -13 -13 -12 -12 -12 -12 -12 -12 -12 -12 -12 -12 -12 -12 -12 -12 -13 -13 -13 -13 -13 -13 -13 -13 -13 -13 -13 -13 -13 -14 -14 -14 -14
-12 -12 -12 -12 -12 -12 -12 -12 -12 -12 -12 -12 -12 -12 -12 -12 -12 -12 -12 -12 -13 -13 -13 -13 -13 -13 -13 -13 -13 -13 -13 -13 -14 -14 -14 -14 -14 -14 -14 -14 -15 -15 -15
-12 -12 -12 -12 -12 -12 -12 -12 -12 -12 -12 -13 -13 -13 -13 -13 -13 -13 -13 -13 -13 -13 -13 -13 -13 -13 -14 -14 -14 -14 -14 -14 -14 -14 -14 -14 -14 -14 -14 -15 -15 -15 -15
-12 -12 -12 -12 -12 -12 -12 -12 -12 -12 -12 -12 -13 -13 -13 -13 -13 -13 -13 -13 -13 -13 -14 -14 -14 -14 -14 -14 -14 -14 -14 -14 -14 -15 -15 -15 -15 -15 -15 -15 -15 -15 -15
-12 -12 -12 -12 -12 -12 -12 -12 -12 -12 -13 -13 -13 -13 -13 -13 -13 -13 -13 -13 -14 -14 -14 -14 -14 -14 -14 -14 -14 -14 -14 -14 -15 -15 -15 -15 -15 -15 -15 -15 -15 -15 -15
-12 -12 -12 -12 -12 -12 -12 -12 -12 -12 -13 -13 -13 -13 -13 -13 -14 -14 -14 -14 -14 -14 -14 -14 -14 -14 -14 -14 -14 -14 -15 -15 -15 -14 -14 -14 -14 -14 -14 -15 -15 -15 -15
-12 -12 -12 -12 -12 -12 -12 -12 -12 -12 -13 -13 -13 -13 -13 -14 -14 -14 -14 -14 -14 -14 -14 -14 -14 -14 -15 -15 -15 -15 -15 -15 -15 -15 -14 -14 -14 -15 -15 -15 -16 -16 -16
-12 -12 -12 -12 -12 -12 -12 -12 -12 -12 -13 -13 -13 -13 -13 -14 -14 -14 -14 -14 -14 -14 -14 -14 -15 -15 -15 -15 -15 -15 -15 -15 -15 -15 -15 -14 -15 -15 -15 -15 -16 -16 -16
-12 -12 -12 -12 -12 -13 -12 -12 -12 -12 -12 -13 -13 -13 -13 -14 -14 -13 -14 -14 -14 -14 -14 -15 -15 -15 -15 -15 -15 -15 -15 -15 -15 -15 -15 -15 -15 -15 -15 -16 -17 -16 -16
-12 -12 -12 -12 -12 -12 -13 -13 -12 -13 -13 -13 -13 -13 -14 -14 -14 -14 -14 -14 -14 -14 -14 -15 -15 -15 -16 -15 -16 -16 -16 -16 -16 -15 -15 -15 -15 -16 -16 -17 -17 -16 -17
-12 -12 -12 -12 -12 -12 -13 -13 -13 -13 -13 -13 -13 -14 -14 -14 -14 -14 -14 -14 -14 -14 -14 -14 -15 -15 -15 -15 -16 -16 -15 -16 -16 -16 -16 -16 -17 -17 -16 -17 -17 -17 -18
-12 -12 -12 -12 -12 -12 -12 -13 -13 -13 -13 -14 -14 -14 -14 -14 -14 -14 -14 -14 -15 -15 -15 -15 -15 -15 -16 -16 -15 -15 -16 -16 -16 -16 -17 -17 -17 -17 -17 -17 -17 -18 -19
-12 -13 -13 -13 -13 -13 -13 -13 -13 -14 -14 -14 -14 -14 -14 -14 -15 -15 -15 -14 -14 -15 -14 -15 -16 -16 -16 -16 -16 -16 -16 -17 -17 -17 -17 -17 -17 -17 -18 -18 -18 -19 -20
-13 -13 -13 -13 -13 -13 -13 -13 -13 -13 -13 -14 -14 -14 -15 -14 -15 -15 -14 -14 -14 -15 -16 -16 -16 -15 -15 -15 -16 -16 -16 -17 -17 -17 -17 -18 -18 -19 -19 -19 -19 -20 -21
-13 -13 -13 -13 -13 -13 -13 -13 -13 -13 -13 -13 -13 -14 -14 -14 -15 -15 -14 -16 -16 -16 -16 -16 -16 -15 -16 -16 -16 -17 -17 -17 -17 -18 -18 -18 -19 -20 -20 -20 -20 -20 -21
-13 -13 -13 -13 -13 -14 -14 -15 -15 -15 -15 -14 -13 -14 -14 -15 -15 -15 -15 -16 -15 -16 -16 -16 -16 -16 -17 -17 -17 -17 -17 -17 -18 -19 -19 -19 -19 -20 -20 -20 -20 -21 -21
-14 -14 -14 -14 -14 -14 -15 -14 -13 -14 -14 -14 -15 -14 -15 -16 -16 -16 -16 -16 -16 -16 -16 -16 -17 -17 -17 -17 -17 -17 -18 -18 -19 -19 -19 -19 -20 -21 -21 -21 -21 -21 -22
-12 -14 -14 -14 -14 -14 -13 -13 -14 -14 -14 -14 -16 -16 -16 -16 -16 -17 -16 -16 -16 -17 -18 -17 -17 -17 -17 -17 -17 -18 -18 -18 -19 -19 -20 -20 -21 -21 -21 -21 -21 -22 -23
-13 -13 -14 -14 -13 -13 -14 -14 -15 -15 -15 -15 -15 -16 -16 -16 -16 -16 -17 -17 -17 -17 -17 -17 -17 -18 -18 -18 -19 -19 -19 -20 -20 -21 -20 -21 -21 -21 -22 -22 -23 -24 -24
-13 -14 -15 -15 -15 -15 -15 -16 -15 -15 -15 -15 -16 -16 -17 -17 -17 -17 -18 -18 -18 -18 -18 -18 -18 -19 -19 -20 -21 -20 -20 -20 -20 -20 -21 -22 -23 -23 -24 -25 -26 -26 -26
Height
5784 5782 5780 5779 5780 5781 5782 5783 5785 5786 5788 5789 5790 5792 5794 5797 5800 5801 5804 5806 5809 5812 5815 5817 5819 5823 5826 5828 5831 5833 5834 5836 5837 5839 5841 5840 5841 5841 5840 5839 5837 5835 5833
5789 5788 5786 5786 5786 5787 5788 5789 5791 5791 5792 5793 5794 5796 5798 5801 5803 5806 5808 5810 5813 5816 5818 5820 5824 5826 5828 5831 5833 5835 5836 5837 5839 5840 5840 5840 5839 5838 5837 5836 5835 5833 5830
5793 5793 5793 5791 5792 5793 5794 5794 5795 5797 5798 5800 5801 5802 5804 5807 5809 5810 5813 5815 5818 5820 5822 5824 5827 5828 5830 5833 5835 5837 5837 5837 5837 5838 5838 5837 5836 5836 5834 5833 5832 5830 5827
5795 5796 5797 5797 5797 5797 5798 5799 5800 5801 5802 5803 5805 5807 5809 5811 5812 5814 5817 5819 5821 5822 5824 5826 5829 5831 5832 5834 5836 5837 5836 5836 5836 5835 5835 5835 5834 5833 5831 5828 5826 5824 5820
5800 5799 5800 5801 5802 5802 5802 5803 5803 5805 5806 5808 5809 5812 5813 5815 5816 5818 5820 5822 5823 5825 5826 5828 5829 5830 5832 5834 5836 5835 5833 5833 5833 5833 5833 5832 5830 5828 5825 5821 5818 5815 5810
5803 5803 5802 5803 5804 5806 5807 5807 5809 5810 5811 5813 5815 5816 5817 5818 5820 5821 5822 5823 5824 5825 5827 5828 5829 5830 5831 5831 5831 5832 5832 5832 5831 5829 5827 5825 5823 5821 5817 5814 5810 5805 5800
5805 5806 5806 5806 5807 5808 5809 5810 5811 5812 5813 5815 5816 5817 5818 5819 5820 5821 5822 5823 5824 5824 5825 5826 5827 5827 5827 5827 5828 5827 5827 5826 5825 5823 5821 5819 5816 5812 5809 5805 5800 5795 5789
5806 5807 5808 5808 5809 5810 5811 5812 5813 5814 5814 5815 5816 5817 5818 5818 5819 5820 5821 5821 5822 5822 5823 5823 5823 5823 5823 5823 5822 5822 5821 5819 5816 5815 5813 5810 5806 5803 5799 5795 5790 5784 5777
5807 5807 5808 5809 5810 5811 5811 5812 5813 5814 5814 5815 5816 5816 5817 5817 5817 5818 5819 5819 5820 5821 5821 5821 5821 5820 5820 5819 5817 5816 5814 5812 5810 5808 5804 5801 5798 5793 5788 5783 5778 5771 5764
5807 5808 5808 5809 5810 5811 5811 5811 5812 5812 5812 5813 5813 5814 5815 5815 5815 5816 5817 5818 5818 5818 5819 5819 5818 5818 5817 5815 5813 5812 5810 5807 5804 5801 5797 5793 5788 5783 5778 5773 5766 5757 5750
5805 5806 5807 5808 5809 5810 5810 5810 5810 5810 5810 5810 5811 5812 5812 5813 5813 5813 5814 5815 5815 5816 5816 5815 5814 5812 5811 5809 5807 5805 5803 5799 5796 5793 5788 5783 5778 5772 5767 5760 5753 5744 5736
5801 5802 5804 5805 5807 5807 5808 5808 5808 5808 5808 5808 5809 5809 5810 5811 5811 5811 5811 5811 5811 5811 5811 5810 5809 5807 5805 5803 5799 5796 5793 5790 5786 5781 5776 5770 5765 5760 5754 5746 5737 5728 5719
5797 5799 5800 5801 5803 5803 5803 5804 5804 5805 5805 5805 5805 5805 5806 5807 5807 5807 5806 5806 5806 5805 5804 5803 5802 5801 5798 5795 5793 5788 5783 5778 5773 5768 5762 5757 5751 5745 5738 5730 5722 5712 5704
5791 5794 5796 5797 5796 5796 5797 5798 5799 5800 5800 5800 5801 5801 5802 5802 5802 5802 5801 5800 5799 5799 5798 5797 5795 5792 5788 5784 5780 5776 5772 5767 5761 5755 5749 5743 5737 5731 5725 5717 5708 5698 5690
5785 5787 5789 5791 5792 5790 5791 5793 5794 5795 5796 5796 5797 5796 5797 5797 5795 5795 5795 5794 5793 5792 5790 5789 5786 5782 5778 5774 5770 5765 5760 5755 5749 5742 5737 5730 5724 5717 5710 5703 5694 5684 5675
5780 5781 5782 5784 5785 5786 5786 5786 5787 5788 5789 5790 5790 5791 5791 5790 5788 5788 5788 5786 5783 5781 5779 5777 5773 5772 5768 5764 5759 5754 5748 5742 5735 5729 5723 5716 5709 5700 5694 5686 5678 5669 5661
5774 5775 5776 5777 5779 5780 5781 5781 5781 5781 5782 5783 5783 5783 5783 5783 5780 5780 5778 5774 5773 5770 5768 5766 5763 5759 5755 5750 5745 5741 5734 5728 5721 5715 5709 5702 5694 5686 5678 5670 5663 5656 5648
5765 5768 5770 5771 5773 5774 5775 5776 5775 5775 5776 5776 5775 5776 5775 5774 5772 5769 5767 5764 5761 5758 5758 5755 5752 5746 5742 5737 5733 5727 5720 5713 5706 5699 5692 5685 5678 5670 5663 5656 5648 5640 5633
5758 5760 5762 5764 5765 5766 5767 5768 5769 5768 5768 5768 5767 5766 5764 5761 5760 5758 5754 5749 5750 5748 5744 5741 5738 5734 5728 5723 5717 5710 5704 5697 5690 5683 5676 5669 5661 5653 5647 5640 5633 5625 5618
5749 5751 5752 5754 5755 5756 5757 5757 5757 5758 5759 5759 5759 5757 5755 5752 5748 5746 5743 5740 5737 5736 5733 5729 5724 5719 5714 5707 5700 5694 5688 5680 5673 5668 5661 5652 5644 5636 5629 5623 5616 5609 5601
5739 5742 5745 5747 5747 5747 5747 5747 5747 5749 5750 5749 5748 5747 5744 5741 5739 5736 5733 5731 5729 5724 5720 5714 5709 5704 5698 5691 5684 5678 5671 5664 5658 5650 5643 5635 5627 5619 5612 5606 5600 5592 5585
5730 5733 5736 5737 5738 5737 5736 5736 5736 5737 5736 5736 5729 5733 5732 5730 5728 5727 5723 5718 5712 5706 5702 5698 5692 5686 5678 5672 5666 5659 5652 5645 5638 5630 5624 5617 5611 5604 5595 5587 5580 5574 5568
5720 5723 5725 5727 5727 5726 5726 5723 5724 5725 5722 5718 5720 5720 5719 5719 5716 5712 5707 5701 5695 5691 5686 5681 5675 5668 5662 5656 5648 5642 5634 5626 5619 5611 5604 5597 5591 5584 5576 5569 5562 5556 5550
5700 5708 5710 5714 5715 5716 5711 5713 5715 5715 5713 5709 5708 5709 5708 5707 5701 5697 5693 5689 5682 5676 5671 5666 5660 5653 5646 5638 5629 5621 5614 5605 5597 5588 5582 5576 5570 5564 5558 5551 5543 5537 5531
5695 5695 5701 5692 5700 5703 5704 5703 5704 5702 5700 5699 5697 5695 5692 5691 5689 5683 5676 5670 5665 5660 5653 5645 5638 5630 5623 5616 5609 5601 5592 5584 5577 5570 5563 5555 5548 5542 5535 5529 5523 5517 5511
5680 5684 5682 5683 5688 5691 5692 5692 5692 5689 5688 5686 5685 5683 5679 5675 5670 5666 5661 5655 5650 5644 5637 5629 5621 5613 5606 5599 5592 5585 5577 5568 5559 5550 5540 5533 5525 5518 5512 5507 5502 5498 5495
Wind_Speed
16 17 22 16 17 17 17 18 19 20 18 18 20 24 23 25 24 24 25 24 25 25 24 24 22 21 19 18 17 17 16 13 10 7 5 2 4 6 10 13 15 15 16
18 19 21 25 23 24 25 24 24 23 22 21 22 22 23 21 20 20 21 20 20 20 20 21 21 19 18 16 15 13 11 10 7 3 2 5 8 10 13 15 17 18 20
17 19 20 21 23 23 23 23 22 21 21 22 22 23 23 22 22 21 20 20 19 19 17 15 14 12 10 10 9 8 5 3 2 3 4 7 11 13 15 15 16 20 24
16 17 18 19 20 20 21 22 22 22 21 21 20 21 20 20 20 19 18 17 15 15 14 13 11 10 9 8 6 4 2 4 3 5 10 13 14 15 18 19 23 21 26
13 16 17 17 17 18 18 19 20 20 20 20 20 19 18 17 16 15 14 12 11 10 9 7 5 4 3 3 2 1 3 7 9 11 15 15 15 17 21 21 25 27 28
8 12 13 13 14 15 15 16 16 17 17 16 16 15 14 13 12 10 9 6 5 4 3 2 1 1 0 1 3 5 8 10 13 17 17 18 21 23 22 26 31 34 36
6 6 9 10 11 11 11 11 11 12 11 10 9 8 7 5 5 5 5 5 5 4 3 3 2 3 5 6 7 9 11 15 17 20 24 26 26 28 33 34 35 37 40
4 5 6 6 6 5 5 4 4 5 4 3 2 3 3 2 3 3 4 4 3 3 4 6 6 7 6 7 10 13 14 17 19 21 25 28 31 34 36 39 41 43 46
4 3 3 3 4 3 3 1 1 2 3 3 3 4 4 5 5 5 4 3 3 4 5 4 5 7 10 14 17 18 20 23 24 26 29 33 36 39 40 39 43 47 49
7 5 4 3 2 1 2 2 4 5 6 7 7 7 8 8 9 8 7 7 7 8 8 10 13 16 19 21 22 23 26 27 27 27 30 34 38 41 42 38 43 48 50
14 12 9 8 6 5 5 5 5 7 8 9 10 11 10 10 11 13 13 13 12 12 14 17 18 19 20 22 25 28 29 30 31 33 37 40 40 41 41 44 49 54 59
19 17 15 13 11 9 10 9 9 9 9 10 11 13 13 12 11 13 16 17 16 17 18 18 20 21 23 26 29 32 34 37 40 43 46 47 44 45 45 47 51 56 61
20 18 17 16 14 14 14 15 13 12 12 13 13 13 13 13 14 14 14 14 16 20 22 23 23 24 29 31 35 38 40 40 40 42 45 46 47 48 51 53 56 63 69
22 22 21 20 20 20 19 18 16 15 14 14 14 14 14 15 16 15 18 20 23 23 23 23 26 31 34 36 38 37 37 42 43 47 52 55 58 60 61 59 60 69 67
20 21 21 22 21 22 22 21 19 19 16 16 16 18 17 19 22 21 21 24 25 26 29 30 35 37 36 38 41 43 49 53 54 57 59 61 61 63 61 63 67 67 64
19 20 21 21 23 24 24 23 21 19 18 17 19 19 19 21 26 27 28 30 33 34 36 37 39 40 41 45 42 46 52 53 55 58 58 58 60 60 64 68 64 58 57
20 21 20 19 20 20 21 23 22 22 21 20 20 21 24 27 30 32 34 35 36 38 41 41 39 38 40 47 48 51 52 54 57 57 60 63 64 66 67 65 63 60 59
25 25 23 20 20 22 21 22 24 25 25 24 27 29 32 34 35 38 42 43 36 33 36 39 39 39 42 46 50 52 53 55 58 61 63 65 64 64 64 64 62 61 58
29 29 29 26 27 27 27 27 27 28 28 30 31 32 37 41 43 39 37 38 35 34 36 37 44 46 48 50 53 55 59 61 63 64 64 67 65 64 63 62 60 60 59
33 32 33 33 34 33 34 34 34 32 30 31 32 34 36 40 43 44 38 36 34 37 40 46 49 51 54 57 60 62 63 65 64 66 70 67 64 63 61 60 61 62 62
38 38 37 37 36 38 39 40 42 38 35 30 34 34 26 35 44 46 41 41 50 48 49 53 57 58 59 62 63 64 64 68 72 73 71 68 63 61 61 62 64 63 61
38 37 36 37 37 38 40 39 38 43 44 40 43 34 32 31 32 38 43 54 54 50 56 59 60 62 63 63 65 70 72 72 72 69 72 69 65 62 63 63 64 64 62
49 37 37 39 37 40 41 48 39 51 53 46 29 34 35 37 42 48 52 52 56 61 63 63 63 65 67 69 70 72 72 71 70 71 71 67 63 59 62 63 65 66 63
46 46 45 43 37 35 45 38 42 41 40 30 25 30 38 43 49 49 52 58 60 59 61 64 66 69 72 73 72 71 71 70 69 68 65 64 61 60 63 69 72 70 68
41 41 46 25 40 45 45 43 43 41 38 39 42 43 51 49 55 61 59 60 63 66 70 71 72 70 69 68 68 66 63 61 62 62 66 67 68 70 73 72 70 66 62
41 44 21 20 30 36 41 40 41 42 44 44 47 51 53 53 53 56 59 61 64 67 66 65 66 64 63 61 61 65 66 67 69 72 74 75 77 76 71 62 49 44 43
Wind_Direction
74 78 77 116 109 116 117 114 117 115 112 116 120 118 122 122 127 128 136 130 129 136 140 140 139 139 138 138 139 140 147 155 159 169 177 208 295 313 302 300 305 304 309
86 84 90 95 110 112 114 115 116 118 115 114 122 125 127 129 131 128 133 133 132 128 128 130 131 138 146 146 148 155 154 160 175 190 237 292 305 311 312 310 307 305 298
97 95 97 104 106 110 113 117 120 121 122 122 121 120 124 130 130 127 126 128 132 136 134 136 138 143 146 143 137 141 159 166 207 278 306 309 293 302 301 303 295 289 293
106 103 100 102 106 107 109 112 116 117 117 116 117 120 124 124 125 126 127 128 130 128 129 129 135 136 135 137 139 154 212 233 255 304 305 302 287 291 295 293 298 303 303
115 114 110 106 104 104 101 100 99 99 101 104 108 109 108 108 109 111 116 120 122 122 121 120 114 113 125 121 119 23 315 269 292 296 299 287 289 295 301 299 297 300 302
117 121 115 112 105 101 99 99 101 103 102 101 100 98 98 98 98 96 97 100 104 110 112 110 108 116 32 304 307 312 318 313 297 289 284 289 301 301 293 296 300 305 307
100 123 123 115 109 108 105 106 114 116 113 105 95 87 81 75 66 59 64 70 84 88 84 62 12 319 307 307 303 300 303 304 298 292 292 293 294 297 299 299 299 302 306
117 111 111 113 106 104 107 117 128 130 121 106 66 33 24 14 13 21 14 15 15 354 339 333 321 302 291 284 286 294 294 299 301 301 299 300 300 301 303 302 299 304 307
162 142 132 129 119 110 104 119 195 241 260 279 299 319 328 317 311 320 319 316 286 271 277 266 270 269 273 276 285 292 296 301 304 306 307 308 307 306 305 303 302 306 308
195 189 175 171 175 217 269 284 282 273 269 267 265 275 289 308 293 286 275 269 267 265 271 277 279 282 279 279 283 290 297 296 299 301 302 302 302 302 301 301 307 314 316
223 213 219 231 238 260 277 296 307 285 271 264 258 255 264 276 282 264 272 271 271 272 284 294 299 301 295 288 289 294 296 294 292 294 298 298 297 298 300 303 308 312 312
235 237 233 237 243 249 259 272 282 275 269 257 254 253 255 264 276 271 273 278 274 273 278 291 300 296 295 294 296 297 298 299 298 295 293 295 297 299 303 305 307 310 310
229 229 241 247 251 257 264 270 273 263 261 250 241 239 242 252 262 269 271 268 275 289 293 297 296 297 297 294 293 294 294 295 296 299 301 304 305 305 303 303 305 312 309
238 237 239 245 253 253 253 259 259 252 244 239 240 244 249 252 256 262 270 275 279 282 285 291 292 292 293 293 295 296 299 301 304 306 307 306 305 307 310 311 311 309 308
243 244 240 236 236 246 252 253 251 248 241 242 245 253 259 262 264 268 266 274 281 281 278 283 285 290 295 299 304 305 306 308 304 300 302 304 303 305 306 307 307 305 306
243 242 241 238 237 235 242 251 249 243 240 243 247 254 260 265 273 275 280 286 285 287 288 288 289 293 292 292 304 308 305 304 302 303 305 308 308 307 305 304 308 307 309
242 243 242 239 238 231 230 236 243 243 245 250 251 252 258 260 265 270 270 271 275 278 281 283 291 291 294 300 299 304 304 302 302 304 307 308 306 303 304 304 305 305 306
240 240 240 239 236 239 241 243 248 255 256 257 262 265 266 269 270 272 272 269 274 279 282 285 290 294 301 297 298 299 300 301 300 302 305 306 305 305 304 304 304 304 304
238 238 241 241 242 244 252 261 266 261 257 260 266 271 275 278 278 278 274 279 276 276 287 298 301 301 300 299 301 304 305 303 300 303 305 305 304 304 302 300 301 302 303
239 236 240 243 248 251 256 259 260 261 262 261 259 262 266 271 276 264 290 288 289 299 301 300 300 301 303 304 304 304 304 307 302 302 306 302 303 299 297 298 300 301 302
244 243 244 247 254 261 266 270 272 265 266 261 261 286 285 272 267 283 292 300 304 301 298 301 300 301 302 302 304 305 305 303 299 299 300 300 300 297 296 298 299 300 300
242 244 250 253 259 263 264 265 263 266 262 265 264 287 289 298 287 285 284 291 295 299 305 306 305 302 304 304 304 305 305 302 299 300 301 301 298 295 295 297 298 297 295
252 244 247 249 259 269 257 256 265 262 262 266 263 283 286 281 289 290 288 295 299 300 302 302 303 303 301 299 301 301 300 299 300 302 301 296 293 293 295 297 296 294 292
231 229 236 239 243 271 265 254 275 275 273 266 266 278 283 287 285 282 285 292 298 300 300 299 299 299 300 300 300 299 299 302 303 301 300 297 294 293 292 291 289 288 289
231 242 247 238 236 255 263 267 269 267 269 276 278 291 291 294 284 294 295 298 302 304 304 304 304 304 303 302 303 306 308 307 305 301 297 293 288 286 287 288 289 288 288
249 244 258 272 257 261 264 272 278 285 289 289 285 285 288 291 293 297 301 302 303 303 303 302 304 307 309 306 301 302 301 300 298 295 292 289 288 288 289 289 291 291 286